Wetbulb
55.28 55.76 55.39 55.51 55.37 55.80 56.36 56.74 56.35 56.57 57.34 57.61 57.83 57.90 58.04 57.78 57.36 56.80 52.18 55.32 57.07 62.93 62.63 57.21 54.04 53.44 50.92 48.94 49.08 46.22 41.93 39.30 41.00 42.86 45.51 49.20 47.67 50.64 50.93 49.24 52.15 53.86 56.90 54.49 60.75
54.78 55.08 55.41 55.59 55.35 55.72 56.18 56.20 55.96 56.36 56.83 56.98 57.09 57.88 57.66 57.05 56.09 53.86 59.25 61.44 62.69 63.19 55.18 53.50 51.76 51.08 48.26 47.86 46.92 44.67 40.37 42.33 45.05 45.00 46.47 47.79 45.69 47.16 47.64 46.88 48.38 51.23 54.33 58.63 60.16
53.88 54.04 54.66 55.20 55.41 55.70 56.05 55.50 55.56 56.25 56.47 56.57 57.00 57.47 57.48 55.92 54.62 52.43 61.83 62.30 63.39 61.86 55.13 53.73 51.92 48.87 46.34 45.52 45.32 42.33 41.27 44.16 45.67 46.32 45.49 44.24 46.33 46.18 45.59 45.34 48.32 49.61 51.78 56.40 58.10
53.34 53.10 53.81 54.76 55.43 55.48 55.04 54.64 55.26 55.96 56.15 56.52 57.22 57.73 57.66 55.72 46.32 53.44 62.35 63.05 64.22 59.76 53.94 52.65 50.36 46.93 44.09 43.38 44.79 41.34 45.70 45.43 46.23 47.09 45.73 45.52 44.48 46.79 45.54 47.72 49.35 52.77 55.80 58.71 59.11
52.56 52.17 53.31 54.11 54.76 55.10 54.82 54.60 54.76 55.12 55.65 56.51 57.39 58.14 55.14 51.34 51.44 56.27 62.14 59.63 55.66 56.36 52.97 51.46 48.93 46.91 44.87 44.30 46.14 43.38 45.44 47.65 48.52 48.42 47.91 47.52 44.46 46.60 47.86 51.04 55.13 56.89 57.37 57.02 56.76
52.12 51.84 52.40 53.53 54.32 54.59 54.59 54.47 54.33 54.65 55.15 56.25 57.41 57.77 51.73 47.78 55.03 55.01 54.10 53.80 53.65 53.83 52.93 52.25 49.78 49.80 46.39 45.73 44.35 46.52 47.17 47.17 47.96 47.55 47.79 46.37 45.19 46.13 48.21 50.29 55.23 55.44 54.62 54.95 54.33
51.54 51.79 52.15 53.07 53.62 53.96 54.16 54.01 53.94 54.34 55.21 56.43 57.37 55.89 51.43 50.30 53.75 51.98 54.03 50.82 52.20 52.85 51.50 52.88 51.93 49.29 48.67 46.86 49.11 48.06 45.24 46.44 47.12 45.51 45.28 45.39 43.52 44.63 46.78 48.36 52.53 52.94 52.36 52.30 52.34
51.66 51.56 51.73 52.56 53.12 53.20 53.41 53.34 53.51 54.54 55.55 56.31 56.95 53.21 48.84 56.12 54.54 53.04 52.40 52.65 53.56 53.43 52.77 52.56 52.79 49.67 48.03 48.82 47.51 44.46 43.29 39.07 43.68 44.82 45.78 43.88 39.57 45.55 45.59 45.39 49.46 50.00 49.30 48.85 48.95
51.17 51.17 51.92 52.20 52.61 52.72 52.76 52.99 53.67 55.42 55.82 56.02 51.84 48.75 46.07 56.32 51.66 51.87 50.17 50.64 51.94 52.67 52.56 54.97 51.97 47.36 47.74 42.74 39.91 40.89 36.52 38.10 40.00 42.99 41.97 41.81 38.78 43.97 43.88 46.07 48.61 47.41 46.90 46.74 46.38
50.53 51.25 51.85 52.08 52.37 52.30 52.24 52.91 54.80 54.68 55.18 54.67 53.99 47.20 49.97 48.28 50.70 51.58 51.76 52.14 50.20 50.71 49.23 48.61 46.25 43.33 41.44 39.96 34.46 36.14 35.12 34.81 34.89 40.16 41.48 38.43 39.15 44.31 47.43 47.43 45.61 44.79 44.35 44.12 43.97
50.30 51.06 51.83 52.10 52.37 52.39 50.97 48.14 46.40 48.00 46.74 45.12 46.78 46.38 47.51 50.75 50.93 50.37 51.36 50.76 49.69 47.29 41.88 43.97 41.95 38.70 39.56 40.70 40.73 39.62 36.87 34.90 36.30 42.32 40.01 39.31 41.89 43.12 44.86 44.76 42.87 42.77 42.25 42.46 43.21
50.21 51.15 51.69 51.81 51.91 52.47 48.30 46.17 45.60 45.94 41.18 48.06 48.88 48.88 49.93 47.73 45.46 49.16 50.75 46.73 47.03 42.61 43.41 41.08 38.15 41.86 43.21 42.95 41.79 39.64 36.05 35.25 37.80 42.26 40.88 40.10 39.26 42.08 43.01 41.89 42.23 42.12 41.84 42.13 42.37
50.37 51.21 51.66 51.47 51.76 49.51 47.36 47.94 52.83 48.82 41.25 47.26 48.61 46.27 46.67 47.47 45.09 46.39 47.94 45.93 45.64 41.55 41.17 38.48 42.13 45.20 42.78 39.94 38.65 36.69 35.74 35.47 36.18 39.68 38.23 35.88 35.81 38.99 42.68 43.47 43.82 42.51 41.84 41.75 41.55
50.24 50.98 51.30 51.75 48.35 47.00 45.62 50.68 52.23 51.14 37.75 42.72 44.00 46.23 46.87 47.30 46.00 48.25 48.25 46.08 44.64 40.57 41.13 41.10 44.94 42.99 40.27 38.49 38.40 33.54 38.29 37.97 38.11 34.70 30.35 33.84 27.99 36.32 39.21 40.60 41.60 40.70 38.79 38.61 39.24
50.29 51.21 51.54 52.09 47.08 45.19 48.03 51.26 54.19 47.41 27.20 43.57 43.67 48.03 46.86 44.92 44.84 45.72 45.69 45.42 40.39 40.68 40.71 38.59 41.60 41.24 38.80 37.95 38.70 36.78 38.83 35.80 36.45 32.42 30.24 32.11 29.08 33.98 38.73 37.79 38.67 39.05 40.82 38.67 38.41
50.18 51.62 51.74 49.13 47.00 46.83 49.90 52.55 47.36 36.17 28.18 40.31 44.30 43.02 43.21 43.85 42.67 43.42 42.39 43.14 41.82 39.54 39.37 39.69 44.03 41.33 40.00 40.24 38.64 38.84 36.09 34.64 32.44 30.71 26.05 29.99 30.24 31.31 33.81 35.90 38.64 38.39 38.64 38.58 38.51
50.03 50.89 50.57 51.17 44.87 48.96 51.47 44.34 35.41 29.77 42.94 37.99 39.45 42.46 41.14 39.57 40.42 40.35 37.57 35.28 32.31 31.46 31.90 37.25 37.33 39.37 40.01 35.85 37.14 35.91 30.98 25.43 26.00 24.84 25.07 32.52 30.94 31.51 37.37 37.62 38.40 37.78 38.15 38.69 39.86
49.33 50.05 51.45 50.42 49.60 50.36 45.98 39.32 28.99 37.68 38.63 40.42 40.16 40.14 38.28 38.89 37.98 38.41 36.69 33.11 35.47 33.58 30.20 29.90 32.24 35.81 39.03 35.87 32.38 32.13 31.19 25.44 22.98 22.28 24.30 31.42 28.28 31.12 38.26 38.78 38.64 39.20 39.06 40.22 40.15
49.88 48.06 48.09 48.78 49.99 49.84 39.91 29.09 31.48 38.48 39.24 38.99 38.05 35.64 35.55 37.27 37.21 36.85 33.93 33.15 34.18 33.99 30.27 28.81 31.46 37.47 38.94 38.42 35.85 33.07 29.52 33.11 28.69 26.58 23.75 25.48 31.56 35.47 36.57 35.66 37.39 37.53 38.56 38.72 39.50
46.03 46.48 46.21 49.43 50.01 45.16 35.81 33.03 38.45 41.87 40.63 39.37 34.54 36.20 33.69 34.62 33.91 34.73 33.90 36.09 35.56 36.36 35.01 33.01 27.76 34.85 38.39 37.96 37.14 33.71 35.44 28.28 26.86 22.17 20.90 24.24 25.59 26.31 30.24 32.41 35.44 35.53 36.28 37.81 39.28
43.60 41.60 48.23 48.36 44.86 38.55 30.28 33.51 40.08 41.86 42.78 39.61 36.86 35.63 36.04 34.47 33.99 33.51 33.69 35.74 37.02 36.18 36.68 33.01 29.93 31.19 33.74 32.59 30.21 32.00 30.26 31.09 30.02 27.31 22.63 19.49 23.72 32.04 31.41 33.68 33.77 34.88 36.94 37.05 37.92
40.55 36.53 47.74 44.82 34.39 33.77 33.46 39.68 42.80 40.53 42.58 40.41 39.73 38.62 36.89 35.84 34.36 34.60 34.04 35.42 37.89 36.96 32.55 32.88 30.06 25.06 28.58 34.74 35.56 33.41 30.93 30.36 24.79 25.03 25.74 23.93 22.00 34.60 33.54 35.22 35.59 35.20 36.36 36.96 36.95
39.99 39.15 43.97 40.98 29.26 30.92 36.79 40.35 41.53 40.08 39.70 39.11 38.07 39.50 38.50 35.16 31.76 35.13 34.96 38.42 39.64 36.36 34.06 32.51 27.28 23.09 27.65 31.76 34.11 31.68 32.57 32.30 30.99 26.95 24.24 19.36 22.38 35.59 34.98 34.44 35.29 34.25 34.44 34.51 35.70
39.27 33.98 33.88 37.62 35.23 34.20 36.49 37.17 37.57 41.04 40.11 40.41 38.67 39.10 36.15 34.11 35.69 33.53 34.02 38.19 38.84 36.96 41.10 36.05 27.72 25.93 22.89 26.03 30.11 28.12 29.98 30.55 28.84 23.26 23.63 23.77 25.25 30.29 31.58 31.96 33.23 32.92 33.10 33.64 34.37
38.91 34.49 34.74 29.22 31.95 35.33 37.40 38.44 36.70 36.45 39.43 39.84 37.06 37.23 35.42 31.37 32.98 32.56 35.57 35.68 37.39 40.31 35.45 32.21 25.92 28.86 30.06 31.77 31.57 30.21 29.65 29.44 27.30 27.48 24.50 25.51 26.50 29.17 30.92 31.27 31.43 32.40 32.84 31.84 32.01
37.91 37.16 37.18 32.67 34.62 35.22 35.62 36.44 36.73 37.30 37.81 36.29 35.86 37.42 36.14 32.77 34.09 32.20 35.06 33.84 33.45 34.93 32.65 33.20 26.16 28.56 27.22 30.18 30.10 27.24 29.45 29.03 28.74 29.44 28.94 29.00 27.98 32.69 33.09 31.96 30.73 30.94 30.89 30.23 31.62
40.18 40.98 37.93 36.01 31.51 30.80 31.52 36.68 38.34 38.25 38.32 39.44 37.94 35.90 34.85 36.02 36.30 35.60 35.79 36.40 36.74 33.56 31.50 30.56 28.52 25.24 22.66 28.03 26.49 22.27 27.44 29.78 29.58 30.51 30.20 26.78 29.04 31.61 29.13 29.09 29.46 29.71 30.04 30.70 32.81
MSLP
1017.66 1017.42 1017.15 1016.94 1016.66 1016.31 1015.96 1015.60 1015.18 1014.79 1014.47 1014.00 1013.46 1012.85 1012.49 1012.01 1010.96 1011.12 1011.35 1011.05 1010.86 1010.59 1010.35 1009.68 1008.61 1008.88 1008.95 1009.54 1009.83 1010.48 1011.81 1012.45 1011.71 1011.15 1010.62 1009.74 1009.39 1008.29 1007.85 1007.64 1007.33 1007.19 1007.65 1008.15 1007.64
1017.62 1017.45 1017.23 1016.94 1016.64 1016.32 1015.92 1015.58 1015.24 1014.85 1014.48 1014.01 1013.64 1013.18 1012.78 1012.30 1011.65 1011.33 1010.77 1010.55 1010.69 1010.63 1010.24 1010.34 1010.07 1009.90 1010.20 1010.44 1010.71 1011.30 1012.31 1012.00 1011.31 1011.08 1010.94 1010.20 1009.82 1009.08 1008.45 1008.27 1008.06 1007.96 1009.02 1008.76 1008.59
1017.69 1017.46 1017.16 1016.93 1016.71 1016.34 1015.93 1015.52 1015.13 1014.75 1014.49 1014.01 1013.40 1012.99 1012.57 1012.26 1012.04 1011.61 1010.69 1010.62 1010.73 1010.72 1010.67 1010.58 1010.40 1010.44 1011.01 1011.19 1011.61 1011.70 1011.96 1011.78 1011.40 1011.03 1010.66 1010.17 1009.65 1009.30 1009.15 1009.09 1008.76 1009.72 1010.50 1010.32 1010.22
1017.68 1017.56 1017.32 1017.01 1016.67 1016.35 1015.99 1015.64 1015.23 1014.80 1014.51 1014.07 1013.29 1012.98 1012.48 1012.32 1012.47 1011.42 1010.90 1010.69 1010.59 1010.46 1010.53 1010.65 1010.86 1011.41 1011.94 1012.16 1012.05 1012.03 1011.84 1011.88 1011.49 1010.87 1010.66 1010.18 1009.55 1009.67 1010.01 1010.29 1009.97 1010.49 1011.32 1011.50 1011.84
1017.72 1017.57 1017.35 1017.10 1016.76 1016.42 1016.08 1015.71 1015.28 1014.86 1014.53 1014.22 1013.43 1012.95 1012.49 1012.54 1012.31 1011.34 1011.11 1010.84 1010.52 1010.45 1010.86 1011.09 1011.44 1011.87 1012.26 1012.27 1012.13 1012.17 1012.04 1011.72 1011.17 1010.72 1010.41 1010.02 1010.12 1010.54 1010.78 1011.20 1011.21 1011.64 1012.35 1012.76 1013.18
1017.75 1017.53 1017.21 1016.93 1016.65 1016.35 1015.98 1015.56 1015.11 1014.64 1014.23 1014.14 1013.64 1012.83 1012.58 1012.57 1011.71 1011.44 1011.22 1010.91 1011.08 1011.02 1011.06 1011.15 1011.44 1011.63 1012.08 1012.34 1012.51 1012.26 1012.08 1011.90 1011.59 1011.22 1010.70 1010.90 1010.89 1010.64 1011.69 1012.02 1012.36 1012.57 1013.53 1014.06 1014.39
1017.76 1017.50 1017.24 1016.91 1016.49 1016.03 1015.59 1015.19 1014.79 1014.31 1013.91 1013.77 1013.57 1013.13 1012.55 1012.26 1011.59 1011.52 1011.23 1011.31 1011.25 1011.30 1011.24 1011.13 1011.31 1011.61 1011.97 1012.33 1012.32 1012.41 1012.54 1012.12 1012.31 1011.94 1011.92 1011.40 1011.68 1011.93 1012.69 1012.66 1013.46 1014.11 1014.80 1015.25 1015.81
1017.68 1017.43 1017.15 1016.80 1016.38 1015.83 1015.26 1014.87 1014.44 1013.99 1013.70 1013.60 1013.43 1013.05 1012.65 1011.68 1011.62 1011.63 1011.49 1011.25 1011.03 1010.99 1011.03 1011.10 1011.14 1011.62 1012.09 1012.39 1012.64 1013.12 1013.18 1013.54 1013.35 1012.99 1012.80 1012.53 1012.94 1012.86 1013.41 1013.66 1015.03 1015.55 1016.19 1016.64 1017.02
1017.57 1017.32 1017.02 1016.70 1016.23 1015.72 1015.04 1014.56 1014.08 1013.79 1013.57 1013.47 1013.53 1013.26 1012.79 1011.74 1011.90 1012.03 1011.91 1011.73 1011.34 1011.04 1010.92 1010.96 1011.32 1012.44 1012.69 1013.46 1014.12 1014.39 1014.61 1014.43 1014.13 1014.07 1014.30 1014.20 1014.58 1014.26 1014.03 1014.77 1016.19 1016.92 1017.47 1017.81 1017.99
1017.46 1017.20 1016.88 1016.59 1016.11 1015.57 1014.71 1014.28 1013.95 1013.79 1013.61 1013.45 1013.65 1013.76 1013.15 1013.05 1012.72 1012.36 1011.78 1011.67 1011.76 1011.58 1011.63 1012.02 1012.84 1013.49 1014.33 1014.52 1015.38 1015.44 1015.47 1015.23 1015.25 1015.23 1015.15 1015.59 1016.57 1016.41 1015.97 1016.00 1017.50 1018.16 1018.51 1018.50 1018.66
1017.36 1017.06 1016.74 1016.32 1015.87 1015.42 1014.38 1014.25 1014.85 1014.87 1014.75 1014.80 1014.62 1014.21 1013.71 1013.29 1012.81 1012.73 1012.29 1012.05 1012.14 1012.46 1013.16 1013.46 1014.13 1014.96 1015.13 1015.03 1015.28 1015.56 1015.97 1016.14 1016.14 1015.74 1016.01 1017.46 1017.82 1018.33 1018.33 1018.13 1018.76 1019.10 1019.19 1019.35 1019.16
1017.42 1017.17 1016.77 1016.38 1016.00 1015.56 1015.30 1016.55 1017.23 1017.43 1016.29 1015.09 1014.57 1014.05 1013.55 1013.45 1013.42 1013.10 1012.68 1012.92 1013.22 1013.72 1013.80 1014.38 1014.87 1015.01 1015.18 1015.38 1015.63 1015.97 1016.34 1016.68 1016.77 1016.43 1016.79 1018.25 1019.21 1019.57 1019.51 1019.70 1019.81 1020.07 1020.10 1020.18 1019.91
1017.57 1017.10 1016.78 1016.28 1016.06 1016.10 1016.69 1017.46 1017.39 1017.27 1016.76 1015.42 1014.39 1013.99 1013.80 1013.76 1013.85 1013.65 1013.51 1013.69 1014.07 1014.46 1014.78 1014.95 1015.16 1015.11 1015.21 1015.85 1016.09 1016.44 1016.94 1017.02 1017.39 1017.21 1017.87 1018.54 1020.15 1020.47 1020.40 1020.39 1020.36 1020.51 1020.54 1020.33 1020.08
1017.56 1017.19 1016.86 1016.13 1016.39 1017.15 1017.45 1017.52 1017.30 1017.18 1017.02 1015.92 1014.62 1014.05 1013.88 1013.84 1014.14 1013.93 1013.93 1014.38 1014.79 1015.33 1015.42 1015.50 1015.30 1015.56 1015.91 1016.36 1016.63 1016.73 1016.95 1017.34 1017.50 1018.39 1018.96 1019.09 1021.00 1021.21 1021.04 1021.09 1020.93 1021.00 1020.80 1020.70 1020.39
1017.48 1017.20 1016.92 1016.14 1016.78 1017.39 1017.78 1017.38 1017.17 1017.21 1017.20 1016.04 1014.67 1014.01 1014.07 1014.49 1014.77 1014.75 1014.88 1014.79 1015.73 1015.99 1016.16 1016.27 1016.03 1016.27 1016.53 1016.93 1016.84 1017.03 1017.14 1017.59 1017.99 1018.82 1019.60 1020.05 1020.83 1021.29 1021.25 1021.30 1021.42 1021.30 1021.12 1021.02 1020.72
1017.44 1017.19 1016.83 1016.77 1017.38 1017.80 1017.60 1017.37 1017.46 1017.51 1016.91 1015.94 1015.02 1014.71 1014.82 1015.11 1015.45 1015.63 1016.00 1016.19 1016.72 1016.83 1016.93 1017.03 1016.49 1016.67 1016.85 1017.11 1017.40 1017.44 1017.53 1018.16 1019.04 1019.86 1020.99 1020.88 1021.23 1021.75 1021.82 1021.91 1021.89 1021.88 1021.60 1021.42 1020.87
1017.61 1017.18 1017.08 1016.83 1018.05 1017.69 1017.53 1017.73 1018.09 1018.12 1017.07 1016.55 1015.77 1015.51 1015.75 1016.20 1016.54 1017.03 1018.20 1018.66 1018.99 1018.83 1019.01 1018.20 1017.79 1017.50 1017.22 1017.52 1017.90 1018.28 1019.22 1019.95 1020.80 1021.33 1021.62 1021.37 1021.65 1021.98 1022.27 1022.39 1022.71 1022.80 1022.64 1022.34 1021.72
1017.63 1017.10 1017.72 1017.92 1017.71 1017.45 1017.77 1018.40 1018.36 1017.88 1017.07 1016.44 1016.09 1016.12 1016.54 1016.94 1017.56 1018.32 1019.19 1020.19 1020.24 1020.29 1020.53 1020.22 1019.19 1018.68 1018.32 1018.47 1019.02 1019.53 1020.34 1021.37 1022.03 1022.80 1022.64 1021.90 1022.34 1022.60 1023.07 1023.72 1024.21 1024.17 1023.98 1023.43 1022.93
1017.59 1017.96 1018.25 1017.97 1017.79 1017.44 1018.38 1019.05 1018.43 1017.71 1016.98 1016.68 1016.67 1016.83 1017.18 1017.50 1018.03 1019.07 1020.26 1021.10 1021.43 1021.33 1021.43 1021.27 1020.38 1019.54 1019.11 1019.07 1019.38 1019.97 1020.74 1021.42 1022.38 1023.60 1024.13 1023.36 1023.42 1023.73 1024.28 1024.95 1025.16 1025.01 1024.61 1024.29 1023.88
1018.26 1018.29 1018.50 1018.26 1018.10 1017.99 1019.09 1019.53 1018.64 1017.63 1017.17 1017.03 1017.21 1017.36 1017.68 1018.10 1018.74 1019.65 1020.83 1021.77 1021.95 1022.00 1021.91 1022.29 1021.76 1020.75 1020.03 1019.65 1019.94 1020.29 1021.19 1022.20 1023.36 1024.46 1025.06 1024.55 1024.42 1024.74 1025.61 1025.86 1025.93 1025.68 1025.31 1024.78 1024.55
1018.81 1018.87 1018.81 1018.43 1018.76 1018.49 1020.07 1019.56 1018.47 1017.68 1017.19 1017.52 1017.69 1017.86 1018.10 1018.63 1019.29 1020.43 1021.59 1022.32 1022.27 1022.53 1022.58 1023.03 1023.11 1022.20 1021.47 1021.45 1021.56 1021.56 1022.30 1023.22 1024.11 1025.31 1025.95 1026.36 1025.92 1026.30 1026.73 1026.77 1026.52 1026.17 1025.95 1025.53 1024.84
1018.94 1019.67 1019.29 1018.98 1019.35 1020.02 1020.10 1019.12 1018.06 1017.81 1017.51 1017.76 1018.02 1018.31 1018.60 1019.12 1019.97 1021.02 1022.01 1022.57 1022.77 1022.98 1023.54 1024.11 1024.37 1024.00 1023.40 1022.78 1022.44 1022.68 1023.67 1024.34 1025.18 1026.19 1026.67 1027.44 1026.98 1027.25 1027.35 1027.02 1026.90 1026.90 1026.49 1025.70 1025.50
1019.50 1020.25 1019.56 1019.31 1020.17 1020.74 1019.92 1019.11 1018.33 1018.09 1017.99 1018.17 1018.53 1018.76 1019.14 1019.77 1020.95 1021.84 1022.71 1023.35 1023.30 1023.62 1024.17 1024.57 1025.26 1025.16 1024.30 1023.97 1023.46 1024.15 1024.77 1025.25 1025.76 1026.58 1027.20 1028.07 1027.21 1027.45 1027.53 1027.01 1027.03 1026.88 1026.50 1026.52 1026.02
1019.42 1020.64 1020.82 1020.91 1021.08 1020.34 1019.97 1019.45 1018.92 1018.51 1018.55 1018.57 1019.05 1019.33 1019.88 1020.57 1021.15 1022.58 1023.37 1023.75 1023.82 1024.22 1024.70 1024.99 1025.93 1025.91 1025.69 1025.28 1025.35 1025.49 1025.60 1026.00 1026.31 1027.25 1027.36 1027.13 1027.09 1027.54 1027.89 1027.71 1027.45 1027.55 1027.63 1027.39 1026.95
1019.54 1020.52 1020.41 1021.39 1021.38 1020.68 1019.95 1019.65 1019.43 1019.19 1019.14 1019.17 1019.73 1020.01 1020.63 1021.46 1021.99 1023.02 1023.75 1024.42 1024.67 1024.74 1025.10 1025.78 1026.65 1026.77 1026.53 1026.36 1026.23 1026.06 1026.07 1026.25 1026.54 1027.02 1027.59 1027.46 1028.17 1028.84 1028.87 1028.84 1028.87 1028.68 1027.99 1027.59 1027.06
1019.78 1020.43 1020.91 1020.81 1020.54 1020.83 1020.41 1020.29 1019.81 1019.80 1019.91 1020.07 1020.29 1020.90 1021.36 1022.05 1022.45 1023.30 1023.83 1024.55 1024.50 1025.36 1025.66 1026.24 1027.12 1027.44 1027.41 1027.03 1026.87 1026.54 1026.21 1026.27 1026.47 1026.81 1027.31 1027.97 1028.75 1029.18 1029.47 1029.57 1029.18 1029.01 1028.85 1028.35 1028.06
1019.84 1019.80 1019.88 1021.23 1021.28 1021.18 1020.80 1020.28 1019.97 1020.22 1021.04 1020.69 1020.94 1021.76 1022.42 1022.87 1023.13 1023.54 1023.80 1024.02 1024.26 1025.08 1026.22 1027.08 1027.89 1028.70 1028.53 1028.26 1027.59 1026.62 1025.46 1025.61 1026.56 1027.19 1027.75 1028.56 1029.26 1029.63 1030.06 1030.00 1029.93 1029.88 1029.48 1029.12 1028.23
Wind_Speed
4 6 7 9 10 11 11 13 14 14 14 15 16 17 17 18 14 2 5 6 5 11 6 9 7 12 4 5 5 3 6 3 4 4 6 6 8 10 2 4 5 6 6 6 7
4 6 7 9 10 11 12 12 13 14 15 15 15 15 14 13 3 7 6 8 5 8 8 10 10 9 5 8 5 7 5 1 2 1 3 4 4 7 6 7 3 4 12 16 19
3 6 8 9 10 11 12 13 14 15 15 15 16 16 14 5 6 4 7 9 6 5 2 1 4 3 6 4 6 2 2 1 3 3 4 3 5 2 5 6 4 9 6 14 19
2 5 7 9 10 12 13 13 14 15 15 15 17 15 14 1 3 4 8 10 8 6 4 6 8 7 5 6 5 3 4 2 6 4 5 7 2 5 6 6 7 15 9 14 17
2 5 7 9 10 11 12 12 13 13 13 13 16 14 2 6 2 6 7 9 4 5 4 4 5 3 4 4 5 4 4 6 8 9 8 4 2 6 11 11 17 17 14 16 15
2 6 8 10 10 11 12 12 12 13 13 11 12 15 3 5 3 6 6 5 5 5 6 5 1 2 1 3 2 4 6 8 6 10 7 8 5 5 8 8 15 18 16 15 16
4 7 10 11 12 12 13 13 13 14 12 10 8 2 6 2 1 5 8 2 2 1 3 3 3 3 0 5 2 3 5 7 7 9 5 7 7 6 6 7 14 16 15 17 17
5 7 10 12 13 14 14 13 14 13 9 7 7 2 2 3 3 7 7 7 5 3 1 2 1 3 1 2 7 5 5 6 4 10 7 5 6 4 8 8 10 15 16 17 15
4 7 10 12 14 15 15 14 11 6 4 4 4 3 1 8 6 6 2 4 8 3 5 1 3 3 6 4 6 7 1 4 7 5 4 8 4 12 9 12 14 14 15 14 11
4 7 9 12 14 16 17 5 6 3 1 0 2 5 6 5 6 7 5 3 3 6 7 8 6 4 5 6 1 2 3 4 4 7 7 9 17 18 19 22 15 13 11 8 9
4 7 9 11 15 16 8 5 7 5 10 2 2 1 2 7 2 6 5 7 5 7 4 5 8 4 3 2 3 6 3 2 3 6 6 13 19 16 14 17 14 10 8 8 7
6 8 8 10 13 14 3 7 2 2 2 2 4 3 2 1 4 8 6 6 6 3 5 8 5 2 5 6 5 5 4 4 3 6 8 12 14 14 13 7 9 9 9 9 7
9 9 10 8 10 5 6 4 4 2 4 6 3 2 3 3 2 6 5 3 5 6 5 5 2 3 7 7 7 3 5 5 2 7 5 5 12 8 5 8 11 9 5 5 5
7 9 9 9 7 2 3 5 4 2 6 5 3 3 3 2 5 2 5 2 7 4 3 2 4 5 6 4 1 3 2 1 3 5 2 3 5 6 2 7 7 6 7 7 8
6 8 7 8 6 3 1 4 0 4 5 2 2 2 3 4 2 6 5 7 3 4 5 1 4 5 7 2 3 6 6 2 2 4 5 6 6 5 3 5 6 7 7 7 7
6 7 3 5 4 1 4 3 4 9 2 1 2 2 4 5 5 5 8 9 2 4 4 3 4 4 0 1 3 6 4 6 5 4 3 2 6 5 2 3 5 6 8 7 7
7 7 3 3 1 4 2 4 8 7 2 2 1 2 2 3 5 5 5 9 5 4 7 7 4 5 3 3 6 12 8 5 4 5 5 2 3 5 4 3 6 15 19 18 15
6 7 6 3 0 2 4 7 4 4 3 1 2 2 2 2 3 5 3 4 6 5 4 3 5 6 8 3 0 2 5 5 3 2 5 3 4 4 6 10 14 13 13 16 19
5 2 1 5 5 4 7 6 8 5 2 4 3 2 1 1 3 6 4 2 3 4 4 1 3 5 2 3 2 2 3 2 3 3 2 3 4 1 11 10 10 11 13 14 16
3 2 3 7 6 5 7 4 2 1 2 2 3 2 4 2 2 4 2 3 2 3 0 1 4 2 6 4 4 2 1 3 4 1 4 5 4 1 8 10 10 11 11 13 13
3 4 3 6 2 7 5 6 3 2 3 3 3 2 2 3 3 2 1 2 3 3 6 2 3 6 2 4 1 6 4 4 4 3 3 2 6 5 3 4 8 9 11 13 16
3 3 4 3 6 2 4 5 2 3 4 3 3 2 2 2 3 3 3 2 3 1 3 2 4 2 3 9 3 4 3 4 5 3 1 3 7 2 1 6 9 11 15 18 19
4 1 3 4 5 1 3 2 2 3 2 3 2 1 1 3 5 3 3 3 4 3 5 2 2 3 6 5 3 6 3 2 2 3 6 4 6 1 5 12 13 18 20 18 18
4 3 5 5 1 6 5 3 4 3 2 3 3 3 3 2 3 5 3 1 2 3 5 6 2 4 6 2 1 5 2 1 4 3 3 7 6 13 15 16 19 19 16 15 16
4 3 4 4 3 4 3 6 6 5 1 2 2 3 5 3 3 4 3 3 3 4 3 5 3 2 3 5 3 4 6 6 5 5 5 0 4 5 10 13 14 15 16 18 19
5 5 2 3 3 6 3 6 8 4 5 3 5 4 2 5 5 7 7 4 5 2 3 1 2 1 4 2 5 5 7 9 6 4 5 3 2 5 8 11 14 16 15 18 19
0 2 5 2 3 6 5 6 9 10 2 2 7 6 4 5 4 3 3 4 7 8 5 5 5 3 5 5 7 8 7 6 4 1 1 2 1 6 10 13 14 10 15 18 21
Wind_Direction
42 15 359 355 350 346 342 338 339 341 343 339 339 336 336 334 318 43 26 244 281 338 318 290 7 0 38 40 27 117 60 31 5 38 297 324 359 321 295 14 347 337 41 349 65
24 5 352 349 346 341 338 337 337 340 343 337 334 329 328 332 27 44 272 283 332 343 10 13 347 357 29 1 24 73 86 279 228 276 307 289 349 301 3 356 332 350 36 48 55
29 353 347 345 340 336 332 330 332 335 340 335 329 330 331 326 58 316 310 310 353 346 302 304 339 33 47 4 354 342 113 351 333 280 272 280 311 273 348 344 287 38 74 54 60
12 345 338 336 334 329 327 324 326 327 332 332 325 330 328 338 90 277 327 320 322 317 14 16 16 25 26 0 331 13 3 88 278 280 300 306 245 5 44 307 350 93 80 76 69
335 330 329 328 323 320 319 317 317 317 321 329 320 329 39 50 30 309 335 331 1 4 34 36 53 35 354 328 349 41 301 329 311 341 332 334 308 90 17 23 77 83 76 74 71
317 322 323 320 316 314 313 312 310 309 315 325 321 319 67 81 284 327 333 351 21 30 348 14 67 233 225 338 93 293 314 304 339 327 4 31 12 89 6 35 77 80 73 71 67
314 322 320 316 315 314 313 311 308 306 310 318 324 0 65 147 281 330 13 307 296 344 316 325 155 68 93 334 276 304 347 354 19 339 26 331 20 82 50 49 81 78 74 71 62
312 323 320 319 317 314 311 310 308 305 305 312 326 17 121 288 319 16 341 331 331 313 250 296 145 93 86 300 13 32 43 27 343 19 337 32 299 334 32 80 77 77 73 69 63
309 321 323 322 316 313 306 313 305 321 303 293 28 45 43 327 18 323 289 304 308 311 313 264 77 63 17 55 19 12 22 339 343 41 358 23 323 330 333 85 80 68 68 69 65
302 320 329 325 316 315 307 284 304 320 357 55 80 47 3 311 304 320 309 335 318 334 19 37 47 60 29 53 176 312 14 335 352 329 8 13 19 37 60 85 82 74 72 71 57
294 319 330 329 324 326 350 19 21 351 38 91 275 235 299 292 325 341 338 348 11 48 28 9 62 71 353 1 79 97 88 336 309 305 61 55 59 51 56 68 68 66 57 49 56
299 315 325 335 331 324 54 75 63 229 343 305 256 290 236 340 357 326 16 46 41 26 355 34 64 116 123 66 73 62 56 348 302 341 82 71 62 51 44 49 67 59 39 29 17
308 321 325 337 332 12 78 75 329 114 85 320 318 71 302 42 346 302 27 9 53 41 10 120 106 95 72 35 37 13 89 313 183 323 99 112 57 42 12 58 65 46 47 27 357
309 323 324 326 65 275 56 330 343 98 76 316 345 342 1 351 10 319 17 67 30 41 30 61 15 67 60 59 63 341 74 265 323 86 238 72 163 28 350 53 41 17 20 1 359
315 324 330 40 144 64 299 322 295 61 50 286 320 275 340 76 287 0 352 29 64 333 66 238 24 73 56 356 331 250 341 287 167 137 99 341 78 244 337 20 17 348 352 358 354
332 332 264 32 46 16 320 307 57 47 271 352 347 13 35 16 13 344 20 32 56 62 18 345 315 66 305 110 17 291 9 44 64 99 65 244 125 283 26 340 349 347 345 346 325
331 354 8 106 180 320 6 50 48 111 19 211 186 66 80 7 31 51 47 24 48 43 5 346 0 332 26 28 11 37 33 351 6 11 219 130 59 218 103 18 18 15 5 353 344
336 69 348 29 156 19 56 52 109 172 203 201 130 94 112 26 31 28 68 38 21 53 68 40 330 9 331 65 338 26 117 143 252 244 283 13 167 223 131 43 38 27 8 360 354
2 16 76 343 339 68 75 61 192 206 156 145 50 100 7 24 118 76 57 76 41 25 115 47 270 327 36 338 79 335 38 165 121 23 49 277 69 11 67 41 23 20 19 18 12
101 46 14 324 320 69 74 196 171 232 99 79 157 163 193 198 104 92 114 322 101 32 139 189 317 17 299 24 2 60 128 43 5 314 273 297 264 193 15 9 5 9 7 3 353
55 76 287 336 295 53 138 215 181 77 105 81 156 134 170 149 115 73 103 350 7 40 63 49 95 300 331 36 44 344 22 45 113 126 196 291 268 70 82 11 356 355 350 341 338
111 81 312 342 60 53 149 196 148 136 72 89 100 95 159 153 98 105 142 51 343 63 60 357 126 287 297 303 75 91 83 93 115 253 238 142 262 110 100 12 5 344 339 347 339
96 114 315 68 127 219 264 131 87 119 144 123 124 103 9 114 96 101 102 7 45 75 141 164 18 16 348 342 18 70 78 93 92 82 212 147 261 106 10 6 360 348 348 345 339
101 79 339 44 27 142 147 169 129 20 108 97 123 101 108 105 48 144 129 101 66 91 89 83 118 184 205 224 14 304 353 327 169 159 235 234 285 8 0 350 343 344 349 340 351
41 220 189 185 258 177 152 165 142 154 89 110 73 170 155 149 138 118 116 127 46 130 91 108 176 243 253 262 271 257 277 272 208 209 213 289 325 11 349 339 334 333 342 342 345
131 132 35 149 103 119 114 205 164 148 145 187 150 127 136 160 182 178 138 187 183 195 135 45 193 77 290 337 334 269 246 261 261 230 263 3 214 12 341 320 339 350 341 341 330
190 24 100 337 98 109 209 187 199 126 9 98 140 112 108 163 124 77 99 115 157 146 155 141 130 94 260 350 324 294 230 183 122 72 195 249 194 341 338 333 327 330 343 332 329